Address 0x9709ae4129ed4bb3fa6678e83a9976b7cc81abd1 15

Txn Hash Method
Block
From
To
Value [Txn Fee]
0x589cd9b6dd18533609b713d22363601ad7b0fe4a5a36c74cb1944c75554ef2c7Swap Exact AVAX ...159216762022-06-12 6:28:1814 days 1 hr ago0x9709ae4129ed4bb3fa6678e83a9976b7cc81abd1OUT Trader Joe: Router0.008 AVAX0.004458570541 28.432403831
0x19b4bc0d3907521097e812129a23f5fee3868f0f45758423acbbc8a1b3e95d97Enter152730862022-05-28 4:26:1629 days 3 hrs ago0x9709ae4129ed4bb3fa6678e83a9976b7cc81abd1OUT 0x75b797a0ed87f77bb546f3a3556f18fc35a011400 AVAX0.00160537 26.5
0xf9b8ee070506352f399f5b5a13f4e89d7bc5ad7292829b5cbf2501014a6c48cb0x2e4dbe8f146697932022-05-14 4:23:1243 days 3 hrs ago0x9709ae4129ed4bb3fa6678e83a9976b7cc81abd1OUT 0xe338d00f5fbd32fa414531be1685418c7c118e830 AVAX0.00588915 25
0xfe7260ea76874b49b2fa9f29c5e00c60f4ccc5769930a75ba9896e737cce8fd80x0031b016143961862022-05-07 18:04:5949 days 13 hrs ago0x9709ae4129ed4bb3fa6678e83a9976b7cc81abd1OUT 0x45e817d12758ac37bc8dd3c71143c1be75e3ed6f0.024190035593608 AVAX0.012809480102 42.907512644
0xead26eb8186a14aa1e2444dd179cc426a0c048066a92d704409a4e67c3c7d0710x1e9a2e92143961642022-05-07 18:04:1649 days 13 hrs ago0x9709ae4129ed4bb3fa6678e83a9976b7cc81abd1OUT 0x45e817d12758ac37bc8dd3c71143c1be75e3ed6f1.35 AVAX0.005194228123 40.841869515
0xe9306892a3033e8905ad415a71044a0ea6d03603dd1016adbb809be5191b5f74Transfer143957742022-05-07 17:50:3749 days 13 hrs agoBinance: C-Chain Hot Wallet IN 0x9709ae4129ed4bb3fa6678e83a9976b7cc81abd11.3886 AVAX0.00197494
0x4355b33d29df9a259e7d6424d5d9d17d099d2cf15323bd06d5a2ea78ab311a7eTransfer143843082022-05-07 11:07:3949 days 20 hrs ago0x9709ae4129ed4bb3fa6678e83a9976b7cc81abd1OUT0x0d0b52f22dd33091aa39b48165c0f3e07f9a2ad11.48 AVAX0.001062377155 50.589388343
0xcd412103ac2c11df8cbf80f4c2d320c2fd3940dd21ac0fa3913944d46d0a18470x415565b0143842792022-05-07 11:06:3149 days 20 hrs ago0x9709ae4129ed4bb3fa6678e83a9976b7cc81abd1OUT 0x: Exchange Proxy0 AVAX0.0133469 50
0x8c4930f6004223c031d44cf3b0d4224e275786797099e17e7caa4b49548ab5740x415565b0143842422022-05-07 11:05:1149 days 20 hrs ago0x9709ae4129ed4bb3fa6678e83a9976b7cc81abd1OUT 0x: Exchange Proxy0 AVAX0.02077972 52
0x57a55ae7b1026ecb62727522a70fb0d885ec7c819cf71414a5f7565a4a5a2b6bApprove143842282022-05-07 11:04:4249 days 20 hrs ago0x9709ae4129ed4bb3fa6678e83a9976b7cc81abd1OUT 0x76076880e1ebbce597e6e15c47386cd34de4930f0 AVAX0.00251221272 53.926345275
0xe3d59a5cea76fc44bb4be7b9cfe5141ffcef9a1ef789973fcca7ae44f61198850x415565b0143841892022-05-07 11:03:2249 days 20 hrs ago0x9709ae4129ed4bb3fa6678e83a9976b7cc81abd1OUT 0x: Exchange Proxy0 AVAX0.0209582 50
0x98b7fa77b8363c1f9cc4f84fa4dfd5f9c58905f88c625f0030ac1274a3cf3610Approve143841742022-05-07 11:02:5249 days 20 hrs ago0x9709ae4129ed4bb3fa6678e83a9976b7cc81abd1OUT Avalanche Bridge: USDT.e0 AVAX0.002454535352 51.985245527
0x9d97663ef941d5f39b7ca2d2e7ecdc47e7cdf3ec2afe0988ac3673f1bd25d3770x1e9a2e92143838552022-05-07 10:51:5149 days 20 hrs ago0x9709ae4129ed4bb3fa6678e83a9976b7cc81abd1OUT 0x45e817d12758ac37bc8dd3c71143c1be75e3ed6f0 AVAX0.006359355127 50.825235592
0x7a12c16c1285fb68bd8eaebbc478693019dd9769210eeed5fcd06849c40a7052Approve143838132022-05-07 10:50:2049 days 20 hrs ago0x9709ae4129ed4bb3fa6678e83a9976b7cc81abd1OUT Avalanche Bridge: USDC.e0 AVAX0.0025558414 54.130832785
0x259caa86beb1f09f3226999a6efbb61204b58a80715f2653c69319a39c4cfdf00x1e9a2e92143837892022-05-07 10:49:2949 days 20 hrs ago0x9709ae4129ed4bb3fa6678e83a9976b7cc81abd1OUT 0x45e817d12758ac37bc8dd3c71143c1be75e3ed6f1.82 AVAX0.008754269421 54.246645606
0xcc4c0bd7cd4f4bf7f34865a4ad6d1aa0657a8cad4158f0c1ac9fadca838bd4eaTransfer143835542022-05-07 10:41:1249 days 21 hrs agoBinance: C-Chain Hot Wallet IN 0x9709ae4129ed4bb3fa6678e83a9976b7cc81abd11.87811 AVAX0.002289109
0x7f033f28a6e0c6464a7d6e366c37cb7acea08df661801e4bbb4e5f8cea420a7bTransfer143138352022-05-05 18:39:1751 days 13 hrs ago0x9709ae4129ed4bb3fa6678e83a9976b7cc81abd1OUT0x0d0b52f22dd33091aa39b48165c0f3e07f9a2ad10.03 AVAX0.005154687059 245.461288543
0x1e2e56fb1caa06f5f55adfb35ab354cf885e42268ecc2efa9568862c90dbab770x2e4dbe8f143116582022-05-05 17:23:2351 days 14 hrs ago0x9709ae4129ed4bb3fa6678e83a9976b7cc81abd1OUT 0xe338d00f5fbd32fa414531be1685418c7c118e830 AVAX0.051797232857 219.900032935
0x68644b32f34fd439c92a707c4b160f2071a096875c9027ce86d53fb1b3117ffcAdd Liquidity ET...141217792022-05-01 5:02:0956 days 2 hrs ago0x9709ae4129ed4bb3fa6678e83a9976b7cc81abd1OUT 0xb9a9bb6cc39387548baa7185fbff51d47eef87710.076186596427632 AVAX0.005628557055 27.090717273
0xb1081c30cb7b9cd2a6f893a86513832eb695cf4efe410217f7aa026eb55420adApprove141217712022-05-01 5:01:5456 days 2 hrs ago0x9709ae4129ed4bb3fa6678e83a9976b7cc81abd1OUT 0x45c13620b55c35a5f539d26e88247011eb10fdbd0 AVAX0.000705907 26.5
0x8f2eab7f3c333deb498fd62af7744e43576d0f8e9de55cd3b82f297f024bc3f0Approve141217612022-05-01 5:01:3356 days 2 hrs ago0x9709ae4129ed4bb3fa6678e83a9976b7cc81abd1OUT 0x45c13620b55c35a5f539d26e88247011eb10fdbd0 AVAX0.001257074632 27.011788904
0x59f82ce4ab1b46c58733f45aa5e716ae55832a4301d05cad2274aedf284d24cdEnter141217432022-05-01 5:00:5856 days 2 hrs ago0x9709ae4129ed4bb3fa6678e83a9976b7cc81abd1OUT 0x75b797a0ed87f77bb546f3a3556f18fc35a011400 AVAX0.002144200307 27.602990569
0xdefdd9d9234f51fa2c1ef0aad42c14fd7db71bc5b3dd838752c3109a9321023fApprove141217232022-05-01 5:00:1756 days 2 hrs ago0x9709ae4129ed4bb3fa6678e83a9976b7cc81abd1OUT 0x45c13620b55c35a5f539d26e88247011eb10fdbd0 AVAX0.001263301223 27.145584756
0x77a1936aecd37cefcd288ba2b14bcae40b7c01ef5d6ade678b3bd3813a1b51d9Transfer141205152022-05-01 4:19:0956 days 3 hrs ago0x9709ae4129ed4bb3fa6678e83a9976b7cc81abd1OUT0x0d0b52f22dd33091aa39b48165c0f3e07f9a2ad10.1 AVAX0.000721053271 34.335870053
0x0672cf59141c6a892e4c13b3564db68752ba33e149fd80c309560985338e2bbb0x61b36437141202622022-05-01 4:10:3856 days 3 hrs ago0x9709ae4129ed4bb3fa6678e83a9976b7cc81abd1OUT 0x663dc15d3c1ac63ff12e45ab68fea3f0a883c2510.01 AVAX0.072408392148 44.412
[ Download CSV Export 
Latest 1 internal transaction
Parent Txn Hash Block From To Value
0xcd412103ac2c11df8cbf80f4c2d320c2fd3940dd21ac0fa3913944d46d0a1847143842792022-05-07 11:06:3149 days 20 hrs ago 0x: Flash Wallet0x9709ae4129ed4bb3fa6678e83a9976b7cc81abd11.499824570724307669 AVAX
[ Download CSV Export 
Loading

Contract Name:
0

Compiler Version
0

Optimization Enabled:
0

Other Settings:
-NA-
Block Transaction Gas Used Reward
Age Block Fee Address BC Fee Address Voting Power Jailed Incoming
Block Uncle Number Difficulty Gas Used Reward
Loading
Make sure to use the "Vote Down" button for any spammy posts, and the "Vote Up" for interesting conversations.